Погода в Тернополе

Погода в Тернополе : погода сейчас, прогноз погоды и архив. Всё, что Вы хотите узнать о погоде в Тернополе!

Хотите узнать прогноз погоды в Тернополе? Тогда Вам сюда: Погода в Тернополе

Поиск расширенной информации на нашем сайте:

Другие новости

Новости СМИ2

Главная страница сайта

Новости сайта

03.07.2017

Напоминаем, что на нашем специализированном сайте Метеоцентр.Азия вы можете получить высокодетализированные автоматические прогнозы погоды по пунктам России, СНГ и мира в авиационном формате (включающие направление и скорость ветра, видимость, явления погоды, количество и форму облачности, нижнюю и верхнюю границу облачности).


Погода в Тернополе - сегодня

Время (UTC), дата Ветер
(°,м/с) 
Видим.   Явления Облачность Т
(°С)
Тd
(°С)
f(%) Тe
(°С)
Pmin
(гПа)
dP
(гПа)
Po
(мм)
O2
(г/м3)
Тmin Tmax R s Состояние
почвы
06 14.08.18 140 (ЮВ) 10 км    3/0 верхняя 
[Ci fib]
+19.5 +15.5 78 +31  1012.9  0.1  731  272  +14.4         
09 14.08.18 150 (ЮВ) 10 км    3/1 600 м верхняя 
[Cu hum|Ci fib]
+28.4 +14.9 44 +38  1011.8  731  264           
12 14.08.18 190 (Ю) 10 км  в посл. час ливневой дождь  8/8 1000 м кучево-дожд. 
[Cb calv]
+29.2 +18.1 51 +45  1010.6  -1  731  262         
15 14.08.18 240 (ЮЗ) 10 км    8/8 1000 м кучево-дожд. 
[Cb calv]
+28.2 +16.4 49 +40  1010.1  -0.6  730  263           
18 14.08.18 180 (Ю) 10 км  {гроза}  8/5 1000 м средняя, верхняя 
[Sc diur, vesp|Ac trans|Ci fib]
+24.4 +14.8 55 +33  1011  0.4  731  267    +30.3     
21 14.08.18 тихо ()   10 км    4/0 верхняя 
[Ci fib]
+21 +15.3 70 +31  1011.9  0.4  731  270           
00 15.08.18 тихо ()   10 км    ясно 
+17.3 +14.6 84 +26  1012.7  0.3  731  274           
03 15.08.18 310 (СЗ) 10 км    3/0 верхняя 
[Ci fib]
+17.1 +15.6 91 +28  1013.4  0.7  732  274           
06 15.08.18 050 (СВ) 10 км    3/0 средняя, верхняя 
[Ac cast|Ci sp]
+20.6 +17 80 +34  1013.4  0.5  732  270  +17         
09 15.08.18 320 (СЗ) 10 км    8/3 1000 м кучево-дожд., средняя 
[Cb cap|Ac cuf]
+24.5 +15.7 58 +35  1013.7  0.7  732  267           
12 15.08.18 330 (СЗ) 20000 м    4/3 1000 м средняя, верхняя 
[Cu med, cong|Ac trans|Cs]
+26.5 +16.2 53 +38  1014  0.5  733  266           
15 15.08.18 340 (С) 20000 м    8/4 1000 м кучево-дожд., средняя, верхняя 
[Cb cap|Ac cuf|Cs]
+23.5 +17.1 67 +37  1015.1  0.8  733  268           
18 15.08.18 320 (СЗ) 10 км  в посл. час ливневой дождь  10/8 1500 м кучево-дожд., средняя, верхняя 
[Cb cap|Ac As|Cs]
+19.6 +17.5 88 +35  1017  1.3  734  272    +27.9  0.3     
21 15.08.18 320 (СЗ) 10 км    10/10 1000 м 
[Sc]
+18.2 +16.4 89 +31  1017.2  734  274           
00 16.08.18 320 (СЗ) 10 км    9/9 1000 м 
[Sc]
+17.2 +15.2 88 +28  1017.6  0.2  735  275           
03 16.08.18 тихо ()   10 км    10/8 1000 м кучево-дожд., верхняя 
[Cb cap|Cs]
+17.1 +15.4 90 +27  1018.1  0.5  735  275           
06 16.08.18 020 (С) 10 км  дымка  10/8 1000 м верхняя 
[Sc|Cs]
+18.6 +17 90 +33  1018.6  0.7  735  274  +16.8        затоплена
водой 
09 16.08.18 320 (СЗ) 10 км  в посл. час ливневой дождь  9/8 1000 м кучево-дожд., средняя 
[Cb calv|Ac trans]
+21.1 +17.4 79 +35  1018.5  0.2  736  271           
12 16.08.18 330 (СЗ) 4000 м  слаб. ливневой дождь  10/8 660 м кучево-дожд., средняя 
[Cb calv|Ac und]
+20.4 +19.1 92 +38  1018.8  0.3  736  271           
15 16.08.18 350 (С) 10 км  слаб. ливневой дождь  9/6 1000 м кучево-дожд., средняя 
[Cb calv|Ac trans]
+19.9 +18.6 92 +37  1018.4  -0.5  735  272           
18 16.08.18 340 (С) 10 км  слаб. ливневой дождь  9/6 1000 м кучево-дожд., средняя 
[Cb calv|Ac trans]
+19.1 +18 93 +36  1018.5  735  273    +21.6     
21 16.08.18 340 (С) 10 км  {ливн. осадки}  10/4 1000 м средняя 
[Sc|Ac und]
+18.1 +16.8 92 +32  1018.9  0.2  736  274           
00 17.08.18 350 (С) 10 км  в посл. час ливневой дождь  9/5 1000 м кучево-дожд., средняя 
[Cb calv|Ac trans]
+17 +15.7 92 +27  1018.4  -0.6  735  275         
03 17.08.18 350 (С) 10 км    10/5 1000 м кучево-дожд., средняя 
[Cb calv|Ac und]
+17 +16 94 +29  1018.1  -0.3  735  275           
06 17.08.18 040 (СВ) 4000 м  дымка  9/4 1000 м средняя, верхняя 
[Sc|Ac trans|Ci fib]
+18.1 +16.8 92 +33  1018.6  0.6  735  274  +16.7       
Время (UTC), дата Ветер
(°,м/с) 
Видим.   Явления Облачность Т
(°С)
Тd
(°С)
f(%) Тe
(°С)
Pmin
(гПа)
dP
(гПа)
Po
(мм)
O2
(г/м3)
Тmin Tmax R s Состояние
почвы

Для получения пояснительной информации подведите курсор к названию столбца.

ПОГОДА в Тернополе - архив

Всё, что Вы хотите узнать о погоде в Тернополе - удобно и подробно!

Выберите нужную дату (начиная с 1 января 2015* года) и нажмите кнопку "Найти".
Будут отображены архивные сводки погоды по пункту Тернополь, начиная с указанной даты.


Отображать данные в формате CSV (для использования в таблицах Excel)


Внимание! Наш архив погоды предназначен исключительно для личного некоммерческого использования в познавательных целях. Если Вам необходимы официальные справки о состоянии погоды (для производственных, юридических, коммерческих и т.п. целей), обращайтесь в органы Росгидромета.

*Примечание: данная дата относится к архиву по метеостанциям СССР (Россия, СНГ, Балтия).
Архив по метеостанциям Зарубежной Европы и Азии (кроме Китая) хранится 10 дней, по другим регионам земного шара (Китай, Африка, Америка, Австралия, Океания) - 1 день.

Тернополь - район местоположения метеостанции


Название, широта, долгота, высота метеостанции:
Тернополь 49.5°ш. 25.7°д. 329 м над ур. моря [Украина]

Дополнительная информация

В oтличие oт бoльшинства пoгoдных сайтoв мы публикуем пoдрoбную метеoинфoрмацию в детальнoм прoфессиoнальнoм фoрмате.

Характеристики температуры и влажнoсти вoздуха измеряются на высoте 2 м в тени вдали oт зданий и деревьев.
Скoрoсть ветра измеряется на высoте 10 м (на урoвне рoста челoвека скoрoсть ветра ниже в 1.5-2 раза). Если метеoстанция нахoдится в гoрoде или в лесу, тo скoрoсть ветра занижена на 2-4 м/с пo сравнению с oткрытым местoм. Скoрoсть ветра над акватoриями крупных рек и oзёр, а также на вершинах хoлмoв на 2-5 м/с выше, чем в oбычных услoвиях.
Атмoсфернoе давление в разных тoчках местнoсти мoжет значительнo oтличаться oт давления на метеoстанции, в зависимoсти oт услoвий рельефа (при пoдъёме на 10 м давление пoнижается примернo на 1 мм рт.ст.).